LEMUR-2-PETERG (42841 NORAD) Tracking and Keplerian Element Data

This shows tracking and keplerian element data for the satellite.

Feedback or suggestion? Click here.




ElementValue
Catalog42841
NameLEMUR-2-PETERG
Epoch Orbit41252
Epoch Day34.48494224
Epoch Year2025
RAAN221.9732
Inclination97.3908
Eccentricity0.0005083
Argument of Perigee310.4341
Mean Anonmoly49.6447
Mean Motion15.13394737
Decay Rate0.00022337
L11 42841U 17042S 25034.48494224 .00022337 00000+0 12518-2 0 9999
L22 42841 97.3908 221.9732 0005083 310.4341 49.6447 15.13394737412526



Live tracking and technical data element details for LEMUR-2-PETERG (NORAD 42841). LEMUR-2-PETERG can be tracked NOW for your location showing map with azimuth and elevation plus other details from your city location.







IsCatalogInMostPopularTable: catalog: 42841, numindb: 435
Update: records affected: 1



GetName: 42841 LEMUR-2-PETERG

Hit Count: updated at: Thu, 15 May 2025 19:59:26 GMT